GW2352 Weather Reports


Display with metric or nautical units.
time (UTC)temp
F
wind
direction
speed
MPH
gust
MPH
rain 1hr
in
rain 24hr
in
rain mn
in
humidity
%
barometer
mb
20260505092642 59 253 7.0 9.0 0.00 0.00 0.00 84 1014.7
20260505092141 60 300 9.0 11.0 0.00 0.00 0.00 82 1014.4
20260505091637 61 311 5.0 7.0 0.00 0.00 0.00 75 1014.5
20260505091135 61 175 2.0 3.0 0.00 0.00 0.00 72 1014.3
20260505090633 61 243 5.0 7.0 0.00 0.00 0.00 70 1014.5
20260505090131 61 228 5.0 7.0 0.00 0.00 0.00 69 1014.6
20260505085628 62 313 6.0 9.0 0.00 0.00 0.00 68 1014.7
20260505085126 62 207 6.0 10.0 0.00 0.00 0.00 66 1014.5
20260505084624 62 161 3.0 5.0 0.00 0.00 0.00 66 1014.6
20260505084122 63 306 11.0 15.0 0.00 0.00 0.00 64 1014.7
20260505083619 63 269 3.0 8.0 0.00 0.00 0.00 63 1014.5
20260505083115 63 171 5.0 6.0 0.00 0.00 0.00 63 1014.5
20260505082611 63 19 8.0 10.0 0.00 0.00 0.00 63 1014.4
20260505082109 64 17 8.0 11.0 0.00 0.00 0.00 63 1014.7
20260505081604 63 247 9.0 13.0 0.00 0.00 0.00 63 1014.5
20260505081102 63 244 5.0 8.0 0.00 0.00 0.00 61 1014.6
20260505080558 63 244 6.0 8.0 0.00 0.00 0.00 59 1014.6
20260505080055 63 327 5.0 6.0 0.00 0.00 0.00 56 1014.2
20260505075550 64 249 5.0 7.0 0.00 0.00 0.00 58 1014.5
20260505075048 64 209 5.0 10.0 0.00 0.00 0.00 59 1014.2
20260505074544 64 171 4.0 5.0 0.00 0.00 0.00 60 1014.3
20260505074042 64 276 7.0 9.0 0.00 0.00 0.00 60 1014.3
20260505073539 65 180 3.0 5.0 0.00 0.00 0.00 61 1014.3
20260505073038 65 302 5.0 6.0 0.00 0.00 0.00 60 1014.2
20260505072533 65 186 5.0 7.0 0.00 0.00 0.00 62 1014.2
20260505072030 63 134 3.0 5.0 0.00 0.00 0.00 63 1014.3
20260505071525 64 327 7.0 9.0 0.00 0.00 0.00 62 1014.2
20260505071024 64 323 3.0 6.0 0.00 0.00 0.00 62 1014.4
20260505070520 63 195 6.0 8.0 0.00 0.00 0.00 62 1014.0
20260505070016 62 249 4.0 7.0 0.00 0.00 0.00 63 1014.2
20260505065512 62 278 5.0 7.0 0.00 0.00 0.00 63 1014.1
20260505065009 63 72 5.0 9.0 0.00 0.00 0.00 61 1014.3
20260505064506 63 162 3.0 5.0 0.00 0.00 0.00 64 1014.0
20260505064005 62 326 4.0 7.0 0.00 0.00 0.00 66 1014.1
20260505063501 61 191 3.0 6.0 0.00 0.00 0.00 68 1013.9
20260505062957 61 143 5.0 7.0 0.00 0.00 0.00 67 1013.8
20260505062454 63 206 7.0 11.0 0.00 0.00 0.00 67 1013.9
20260505061951 62 144 3.0 6.0 0.00 0.00 0.00 68 1013.8
20260505061449 60 240 6.0 8.0 0.00 0.00 0.00 69 1014.1
20260505060946 60 121 5.0 7.0 0.00 0.00 0.00 70 1013.9
20260505060443 61 232 3.0 3.0 0.00 0.00 0.00 69 1013.9
20260505055940 61 224 3.0 5.0 0.00 0.00 0.00 69 1014.0
20260505055436 62 209 7.0 9.0 0.00 0.00 0.00 69 1014.0
20260505054932 61 163 5.0 8.0 0.00 0.00 0.00 69 1014.0
20260505054430 60 185 4.0 5.0 0.00 0.00 0.00 70 1014.0
20260505053928 59 168 5.0 8.0 0.00 0.00 0.00 71 1013.9
20260505053425 59 274 3.0 3.0 0.00 0.00 0.00 72 1013.8
20260505052921 59 214 3.0 3.0 0.00 0.00 0.00 74 1013.9
20260505052418 60 31 6.0 9.0 0.00 0.00 0.00 74 1013.8
20260505051916 60 133 3.0 5.0 0.00 0.00 0.00 74 1013.8
20260505051413 60 192 1.0 3.0 0.00 0.00 0.00 76 1013.9
20260505050911 59 157 3.0 5.0 0.00 0.00 0.00 77 1013.8
20260505050409 58 147 2.0 3.0 0.00 0.00 0.00 77 1013.9
20260505041336 57 158 0.0 0.0 0.00 0.00 0.00 78 1013.5
20260505040833 57 153 0.0 0.0 0.00 0.00 0.00 78 1013.5
20260505040331 57 146 0.0 0.0 0.00 0.00 0.00 77 1013.5
20260505035827 56 147 1.0 1.0 0.00 0.00 0.00 78 1013.5
20260505035323 56 154 1.0 1.0 0.00 0.00 0.00 78 1013.3
20260505034821 56 148 0.0 0.0 0.00 0.00 0.00 78 1013.5
20260505034317 56 143 0.0 0.0 0.00 0.00 0.00 78 1013.4
20260505033814 56 139 0.0 1.0 0.00 0.00 0.00 78 1012.9
20260505033311 56 146 0.0 0.0 0.00 0.00 0.00 78 1013.5
20260505032810 56 180 0.0 1.0 0.00 0.00 0.00 78 1013.4
20260505032305 56 143 1.0 1.0 0.00 0.00 0.00 78 1013.4
20260505031803 56 38 0.0 1.0 0.00 0.00 0.00 78 1013.2
20260505031259 56 148 0.0 0.0 0.00 0.00 0.00 79 1013.3
20260505030756 56 272 1.0 1.0 0.00 0.00 0.00 79 1013.4
20260505030252 56 203 0.0 1.0 0.00 0.00 0.00 79 1013.1
20260505025748 56 142 0.0 0.0 0.00 0.00 0.00 79 1013.2
20260505025246 56 146 0.0 0.0 0.00 0.00 0.00 78 1013.1
20260505024744 56 322 1.0 1.0 0.00 0.00 0.00 78 1013.1
20260505024241 56 280 1.0 1.0 0.00 0.00 0.00 78 1013.2
20260505023738 56 158 0.0 1.0 0.00 0.00 0.00 78 1012.9
20260505023235 56 248 2.0 3.0 0.00 0.00 0.00 78 1012.9
20260505022733 56 314 1.0 2.0 0.00 0.00 0.00 78 1012.8
20260505022230 56 139 1.0 2.0 0.00 0.00 0.00 78 1013.2
20260505021726 56 311 1.0 2.0 0.00 0.00 0.00 78 1013.2
20260505021223 56 224 0.0 1.0 0.00 0.00 0.00 78 1013.1
20260505020719 56 158 1.0 1.0 0.00 0.00 0.00 78 1013.1
20260505020214 56 292 1.0 2.0 0.00 0.00 0.00 78 1013.1
20260505015712 56 37 1.0 1.0 0.00 0.00 0.00 79 1013.1
20260505015209 56 161 0.0 0.0 0.00 0.00 0.00 79 1012.8
20260505014706 56 133 2.0 2.0 0.00 0.00 0.00 80 1012.9
20260505014203 56 330 0.0 0.0 0.00 0.00 0.00 80 1013.1
20260505013659 56 313 1.0 2.0 0.00 0.00 0.00 80 1012.9
20260505013151 56 295 1.0 1.0 0.00 0.00 0.00 80 1012.9
20260505012649 56 143 1.0 1.0 0.00 0.00 0.00 80 1012.9
20260505012146 56 306 2.0 2.0 0.00 0.00 0.00 80 1013.1
20260505011641 56 294 3.0 3.0 0.00 0.00 0.00 79 1012.9
20260505011139 57 242 1.0 2.0 0.00 0.00 0.00 79 1013.1
20260505010634 57 303 3.0 5.0 0.00 0.00 0.00 79 1013.1
20260505010131 57 232 2.0 2.0 0.00 0.00 0.00 79 1013.2
20260505005627 56 321 2.0 3.0 0.00 0.00 0.00 80 1012.9
20260505005124 56 265 2.0 2.0 0.00 0.00 0.00 81 1013.2
20260505004621 56 141 2.0 2.0 0.00 0.00 0.00 81 1013.2
20260505004118 56 317 1.0 2.0 0.00 0.00 0.00 81 1013.2
20260505003615 56 95 2.0 2.0 0.00 0.00 0.00 82 1013.3
20260505003112 56 303 3.0 5.0 0.00 0.00 0.00 82 1013.4
20260505002607 56 178 2.0 2.0 0.00 0.00 0.00 82 1013.4
20260505002101 56 127 1.0 1.0 0.00 0.00 0.00 82 1013.5
20260505001558 56 304 1.0 1.0 0.00 0.00 0.00 81 1013.4
20260505001055 56 305 2.0 3.0 0.00 0.00 0.00 81 1013.3
20260505000552 56 221 0.0 1.0 0.00 0.00 0.00 81 1013.6
20260505000050 56 131 1.0 1.0 0.00 0.00 0.00 82 1013.5
20260504235546 56 162 0.0 1.0 0.00 0.00 0.00 82 1013.6
20260504235043 56 128 1.0 2.0 0.00 0.00 0.00 81 1013.6
20260504234540 56 218 1.0 1.0 0.00 0.00 0.00 82 1013.5
20260504234037 56 150 0.0 1.0 0.00 0.00 0.00 81 1013.7
20260504233532 56 309 2.0 2.0 0.00 0.00 0.00 81 1013.6
20260504233029 56 198 2.0 5.0 0.00 0.00 0.00 81 1013.6
20260504232526 56 258 1.0 2.0 0.00 0.00 0.00 81 1013.7
20260504232024 56 270 3.0 3.0 0.00 0.00 0.00 80 1013.7
20260504231521 56 291 2.0 3.0 0.00 0.00 0.00 80 1013.7
20260504231017 56 119 1.0 1.0 0.00 0.00 0.00 80 1013.8
20260504230513 56 186 1.0 1.0 0.00 0.00 0.00 80 1013.9
20260504230012 56 81 1.0 1.0 0.00 0.00 0.00 80 1014.1
20260504225509 56 143 0.0 1.0 0.00 0.00 0.00 80 1014.2
20260504225006 56 163 1.0 2.0 0.00 0.00 0.00 80 1014.1
20260504224502 56 280 1.0 1.0 0.00 0.00 0.00 80 1014.1
20260504223959 56 305 1.0 2.0 0.00 0.00 0.00 80 1014.2
20260504223456 56 289 2.0 2.0 0.00 0.00 0.00 81 1014.2
20260504222951 56 298 1.0 2.0 0.00 0.00 0.00 81 1014.5
20260504222449 56 144 1.0 2.0 0.00 0.00 0.00 81 1014.4
20260504221946 55 74 1.0 1.0 0.00 0.00 0.00 81 1014.4
20260504221444 55 320 1.0 2.0 0.00 0.00 0.00 81 1014.4
20260504220940 56 137 0.0 1.0 0.00 0.00 0.00 81 1014.5
20260504220437 56 177 1.0 2.0 0.00 0.00 0.00 81 1014.7
20260504215934 56 256 1.0 2.0 0.00 0.00 0.00 80 1014.8
20260504215431 56 132 0.0 1.0 0.00 0.00 0.00 80 1014.5
20260504214927 56 245 2.0 2.0 0.00 0.00 0.00 81 1014.8
20260504214424 56 245 2.0 2.0 0.00 0.00 0.00 82 1014.7
20260504213920 55 300 1.0 2.0 0.00 0.00 0.00 82 1014.7
20260504213416 55 235 1.0 1.0 0.00 0.00 0.00 82 1014.9
20260504212914 56 282 1.0 2.0 0.00 0.00 0.00 81 1014.8
20260504212409 56 309 2.0 3.0 0.00 0.00 0.00 81 1014.8
20260504211908 56 155 1.0 2.0 0.00 0.00 0.00 80 1015.2
20260504211404 56 47 0.0 1.0 0.00 0.00 0.00 81 1014.9
20260504210901 56 155 1.0 1.0 0.00 0.00 0.00 80 1015.0
20260504210358 56 294 5.0 6.0 0.00 0.00 0.00 81 1015.1
20260504205855 56 303 5.0 6.0 0.00 0.00 0.00 82 1014.9
20260504205353 56 296 3.0 5.0 0.00 0.00 0.00 82 1015.0
20260504204851 55 268 5.0 7.0 0.00 0.00 0.00 83 1014.7
20260504204349 55 328 3.0 6.0 0.00 0.00 0.00 86 1015.1
20260504203848 54 289 3.0 6.0 0.00 0.00 0.00 88 1014.9
20260504203344 54 133 1.0 1.0 0.00 0.00 0.00 89 1015.2
20260504202840 55 227 5.0 6.0 0.00 0.00 0.00 90 1015.3
20260504202338 55 303 6.0 8.0 0.00 0.00 0.00 91 1015.5
20260504201834 55 263 5.0 7.0 0.00 0.00 0.00 91 1015.4
20260504201331 55 306 5.0 7.0 0.00 0.00 0.00 91 1015.5
20260504200829 56 293 3.0 3.0 0.07 0.00 0.00 90 1015.3
20260504200325 56 285 2.0 3.0 0.19 0.00 0.00 88 1015.3
20260504195822 57 242 2.0 2.0 0.19 0.27 0.27 85 1015.5
20260504195317 58 310 4.0 5.0 0.00 0.24 0.24 80 1015.5
20260504194814 58 350 1.0 1.0 0.00 0.24 0.24 80 1015.3
20260504194310 58 140 0.0 0.0 0.00 0.24 0.24 80 1015.4
20260504193807 58 138 0.0 0.0 0.00 0.24 0.24 80 1015.3
20260504193304 58 264 3.0 3.0 0.00 0.24 0.24 80 1015.5
20260504192803 58 201 2.0 2.0 0.00 0.24 0.24 80 1015.3
20260504192300 58 349 3.0 3.0 0.00 0.24 0.24 80 1015.5
20260504191759 58 145 0.0 1.0 0.00 0.24 0.24 79 1015.4
20260504191255 58 275 5.0 7.0 0.00 0.24 0.24 78 1015.5
20260504190751 58 131 1.0 1.0 0.00 0.24 0.24 77 1015.4
20260504190248 58 300 5.0 6.0 0.00 0.24 0.24 77 1015.4
20260504185744 58 304 1.0 2.0 0.00 0.24 0.24 77 1015.3
20260504185241 58 283 3.0 7.0 0.00 0.24 0.24 78 1015.4
20260504184737 58 147 2.0 2.0 0.00 0.24 0.24 78 1015.2
20260504184233 57 276 5.0 8.0 0.00 0.24 0.24 79 1015.1
20260504183729 57 331 2.0 2.0 0.00 0.24 0.24 80 1015.1
20260504183226 58 55 2.0 3.0 0.00 0.24 0.24 82 1015.1
20260504182724 58 165 3.0 5.0 0.00 0.24 0.24 81 1015.0
20260504182221 58 310 1.0 2.0 0.00 0.24 0.24 82 1014.8
20260504181719 59 302 5.0 7.0 0.00 0.24 0.24 82 1014.9
20260504181216 59 47 6.0 10.0 0.00 0.24 0.24 81 1014.9
20260504180715 59 225 5.0 8.0 0.00 0.24 0.24 79 1015.0
20260504180213 59 169 3.0 3.0 0.00 0.24 0.24 75 1014.8
20260504175710 59 125 3.0 3.0 0.00 0.24 0.24 75 1014.8
20260504175207 59 285 3.0 6.0 0.00 0.24 0.24 74 1014.8
20260504174705 59 197 3.0 3.0 0.00 0.24 0.24 72 1014.8
20260504174203 60 277 5.0 7.0 0.00 0.24 0.24 71 1014.8
20260504173659 60 307 7.0 9.0 0.00 0.24 0.24 69 1014.6
20260504173156 60 284 9.0 11.0 0.00 0.24 0.24 69 1014.5
20260504172652 60 311 8.0 10.0 0.00 0.24 0.24 69 1014.6
20260504172149 60 286 5.0 6.0 0.00 0.24 0.24 71 1014.5
20260504171645 60 333 8.0 9.0 0.00 0.24 0.24 72 1014.4
20260504171143 59 222 8.0 13.0 0.00 0.24 0.24 74 1014.4
20260504170639 60 307 7.0 11.0 0.00 0.24 0.24 77 1014.3
20260504170137 60 322 10.0 13.0 0.00 0.24 0.24 78 1014.3
20260504151021 62 323 7.0 8.0 0.00 0.24 0.24 73 1014.4
20260504150519 62 337 7.0 10.0 0.00 0.24 0.24 72 1014.3
20260504140945 62 186 5.0 6.0 0.00 0.24 0.24 80 1014.2
20260504140442 61 237 5.0 8.0 0.00 0.24 0.24 81 1014.2
20260504130406 64 177 5.0 9.0 0.00 0.24 0.24 72 1013.9
20260504110248 63 261 4.0 7.0 0.00 0.24 0.24 79 1014.8
20260504100211 61 274 5.0 11.0 0.00 0.19 0.19 81 1014.9